Weather History for KEIK - March, 2013

Change the Weather History Date:

Sunday, March 3, 2013

  Actual Average (KBJC) Record (KBJC)
Temperature  
Mean Temperature 48 °F -  
Max Temperature 63 °F 45 °F 71 °F (2009)
Min Temperature 32 °F 25 °F 5 °F (2002)
Degree Days  
Heating Degree Days 18    
Moisture  
Dew Point 24 °F    
Average Humidity 45    
Maximum Humidity 85    
Minimum Humidity 16    
Precipitation  
Precipitation 0.00 in - - ()
Sea Level Pressure  
Sea Level Pressure 29.77 in    
Wind  
Wind Speed 6 mph (WSW)    
Max Wind Speed 29 mph    
Max Gust Speed 37 mph    
Visibility 10 miles    
Events      
Averages and records for this station are not official NWS values.
T = Trace of Precipitation, MM = Missing Value Source: NWS Daily Summary

Daily Weather History Graph

Daily Weather History Graph

Search for Another Location

Airport or City:

Trip Planner

Search our weather history database for the weather conditions in past years. The results will help you decide how hot, cold, wet, or windy it might be!

Date:

Astronomy

Mar. 03, 2013 Rise Set
Actual Time 6:30 AM MST 5:54 PM MST
Civil Twilight 6:02 AM MST 6:21 PM MST
Nautical Twilight 5:31 AM MST 6:53 PM MST
Astronomical Twilight 5:00 AM MST 7:24 PM MST
Moon No Moon Rise 9:47 AM MST
Length of Visible Light 12h 18m
Length of Day
11h 24m
Waning Gibbous, 63% of the Moon is Illuminated
Mar 3
Waning Gibbous
Mar 4
Last Quarter
Mar 11
New
Mar 19
First Quarter
Mar 27
Full

Hourly Weather History & Observations

Time (MST) Temp. Windchill Dew Point Humidity Pressure Visibility Wind Dir Wind Speed Gust Speed Precip Events Conditions
12:48 AM 39.9 °F 37.8 °F 27.9 °F 62% 29.99 in 10.0 mi South 3.5 mph - N/A   Clear
1:07 AM 45.5 °F 40.3 °F 24.4 °F 44% 29.98 in 10.0 mi South 10.4 mph - N/A   Clear
1:28 AM 42.3 °F 39.4 °F 26.2 °F 53% 29.97 in 10.0 mi SSW 4.6 mph - N/A   Clear
1:47 AM 42.4 °F 36.5 °F 25.9 °F 52% 29.95 in 10.0 mi SW 10.4 mph - N/A   Clear
2:07 AM 44.6 °F 42.2 °F 24.3 °F 45% 29.94 in 10.0 mi SSE 4.6 mph - N/A   Clear
2:28 AM 41.7 °F 39.8 °F 25.7 °F 53% 29.93 in 10.0 mi West 3.5 mph - N/A   Clear
2:49 AM 40.5 °F 38.4 °F 26.6 °F 58% 29.91 in 10.0 mi East 3.5 mph - N/A   Clear
3:08 AM 39.2 °F - 27.1 °F 62% 29.89 in 10.0 mi Calm Calm - N/A   Clear
3:28 AM 37.6 °F - 28.2 °F 69% 29.89 in 10.0 mi Calm Calm - N/A   Clear
3:46 AM 35.6 °F 32.8 °F 28.2 °F 75% 29.88 in 10.0 mi SSE 3.5 mph - N/A   Clear
4:09 AM 34.5 °F - 29.1 °F 81% 29.88 in 10.0 mi Calm Calm - N/A   Clear
4:29 AM 34.7 °F - 29.1 °F 80% 29.86 in 10.0 mi Calm Calm - N/A   Clear
4:47 AM 34.0 °F 31.0 °F 29.3 °F 83% 29.86 in 10.0 mi ESE 3.5 mph - N/A   Clear
5:08 AM 37.9 °F 32.7 °F 27.1 °F 65% 29.85 in 10.0 mi SSW 6.9 mph - N/A   Clear
5:27 AM 35.4 °F - 27.5 °F 73% 29.84 in 10.0 mi Calm Calm - N/A   Clear
5:49 AM 34.0 °F - 27.5 °F 77% 29.84 in 10.0 mi Calm Calm - N/A   Clear
6:08 AM 32.7 °F - 27.7 °F 82% 29.83 in 10.0 mi Calm Calm - N/A   Clear
6:28 AM 32.4 °F - 28.2 °F 85% 29.83 in 10.0 mi Calm Calm - N/A   Clear
6:48 AM 32.0 °F 28.7 °F 27.5 °F 83% 29.83 in 10.0 mi South 3.5 mph - N/A   Clear
7:06 AM 32.2 °F 27.7 °F 28.0 °F 85% 29.83 in 10.0 mi South 4.6 mph - N/A   Clear
7:26 AM 34.7 °F - 27.7 °F 76% 29.84 in 10.0 mi Calm Calm - N/A   Clear
7:46 AM 36.0 °F 33.3 °F 28.6 °F 75% 29.83 in 10.0 mi East 3.5 mph - N/A   Clear
8:06 AM 37.4 °F - 30.0 °F 75% 29.83 in 10.0 mi Calm Calm - N/A   Clear
8:25 AM 37.9 °F - 30.9 °F 76% 29.83 in 10.0 mi Calm Calm - N/A   Clear
8:47 AM 41.0 °F - 29.8 °F 64% 29.83 in 10.0 mi Calm Calm - N/A   Clear
9:07 AM 43.9 °F 42.3 °F 26.6 °F 51% 29.82 in 10.0 mi ESE 3.5 mph - N/A   Clear
9:26 AM 45.7 °F - 28.0 °F 50% 29.81 in 10.0 mi Calm Calm - N/A   Clear
9:46 AM 49.5 °F - 27.5 °F 43% 29.80 in 10.0 mi NE 4.6 mph - N/A   Clear
10:06 AM 53.4 °F - 27.5 °F 37% 29.79 in 10.0 mi ESE 6.9 mph - N/A   Clear
10:26 AM 57.2 °F - 23.4 °F 27% 29.78 in 10.0 mi East 8.1 mph - N/A   Clear
10:47 AM 61.2 °F - 18.3 °F 19% 29.77 in 10.0 mi NNE 6.9 mph - N/A   Clear
11:05 AM 60.4 °F - 16.2 °F 18% 29.77 in 10.0 mi Calm Calm - N/A   Clear
11:26 AM 61.7 °F - 17.1 °F 18% 29.76 in 10.0 mi Calm Calm - N/A   Clear
11:47 AM 60.1 °F - 18.1 °F 20% 29.75 in 10.0 mi NNE 4.6 mph - N/A   Clear
12:06 PM 61.5 °F - 18.5 °F 19% 29.74 in 10.0 mi West 6.9 mph - N/A   Clear
12:26 PM 60.8 °F - 18.5 °F 19% 29.71 in 10.0 mi WSW 12.7 mph 18.4 mph N/A   Clear
12:46 PM 61.7 °F - 17.2 °F 18% 29.70 in 10.0 mi WSW 21.9 mph 27.6 mph N/A   Clear
1:06 PM 61.7 °F - 16.5 °F 17% 29.68 in 10.0 mi SW 16.1 mph 28.8 mph N/A   Clear
1:28 PM 61.7 °F - 18.3 °F 19% 29.67 in 10.0 mi WSW 15.0 mph 21.9 mph N/A   Clear
1:47 PM 63.7 °F - 16.7 °F 16% 29.66 in 10.0 mi SW 20.7 mph 29.9 mph N/A   Clear
2:07 PM 63.3 °F - 18.5 °F 18% 29.65 in 10.0 mi WSW 17.3 mph 28.8 mph N/A   Clear
2:27 PM 62.1 °F - 17.1 °F 18% 29.65 in 10.0 mi WSW 17.3 mph 28.8 mph N/A   Clear
2:47 PM 61.3 °F - 18.7 °F 19% 29.66 in 10.0 mi WSW 28.8 mph 36.8 mph N/A   Clear
3:07 PM 60.4 °F - 20.1 °F 21% 29.66 in 10.0 mi West 18.4 mph 35.7 mph N/A   Clear
3:29 PM 60.8 °F - 18.9 °F 20% 29.66 in 10.0 mi West 21.9 mph 32.2 mph N/A   Clear
4:05 PM 60.4 °F - 19.6 °F 21% 29.66 in 10.0 mi WSW 25.3 mph 35.7 mph N/A   Clear
4:27 PM 58.8 °F - 19.0 °F 21% 29.67 in 10.0 mi West 20.7 mph 34.5 mph N/A   Clear
4:49 PM 57.6 °F - 21.2 °F 24% 29.67 in 10.0 mi West 17.3 mph 26.5 mph N/A   Clear
5:27 PM 55.8 °F - 21.7 °F 27% 29.67 in 10.0 mi West 20.7 mph 25.3 mph N/A   Clear
5:47 PM 54.7 °F - 22.1 °F 28% 29.68 in 10.0 mi West 16.1 mph 29.9 mph N/A   Clear
6:06 PM 53.2 °F - 22.3 °F 30% 29.69 in 10.0 mi WSW 10.4 mph 23.0 mph N/A   Clear
6:26 PM 52.9 °F - 21.7 °F 30% 29.69 in 10.0 mi WSW 13.8 mph - N/A   Clear
6:47 PM 52.2 °F - 23.2 °F 32% 29.71 in 10.0 mi West 10.4 mph 24.2 mph N/A   Clear
7:09 PM 50.9 °F - 24.1 °F 35% 29.71 in 10.0 mi West 18.4 mph 27.6 mph N/A   Clear
7:29 PM 50.5 °F - 26.2 °F 39% 29.71 in 10.0 mi West 15.0 mph 20.7 mph N/A   Clear
7:47 PM 49.3 °F - 27.1 °F 42% 29.71 in 10.0 mi West 10.4 mph - N/A   Clear
8:07 PM 49.1 °F - 26.2 °F 41% 29.71 in 10.0 mi WNW 9.2 mph 16.1 mph N/A   Clear
8:28 PM 48.0 °F - 25.5 °F 41% 29.70 in 10.0 mi Calm Calm - N/A   Clear
8:48 PM 50.2 °F - 23.9 °F 36% 29.69 in 10.0 mi Calm Calm - N/A   Clear
9:09 PM 49.6 °F - 24.3 °F 37% 29.69 in 10.0 mi NE 3.5 mph - N/A   Clear
9:30 PM 47.5 °F - 24.1 °F 40% 29.68 in 10.0 mi Calm Calm - N/A   Clear
9:48 PM 47.1 °F - 25.0 °F 42% 29.68 in 10.0 mi Calm Calm - N/A   Clear
10:07 PM 47.7 °F - 25.7 °F 42% 29.68 in 10.0 mi West 9.2 mph - N/A   Clear
10:27 PM 45.0 °F - 25.5 °F 47% 29.68 in 10.0 mi Calm Calm - N/A   Clear
10:47 PM 48.9 °F - 24.8 °F 39% 29.68 in 10.0 mi WNW 16.1 mph 26.5 mph N/A   Clear
11:08 PM 49.1 °F - 24.3 °F 38% 29.67 in 10.0 mi NW 6.9 mph - N/A   Clear
11:28 PM 47.5 °F - 24.3 °F 40% 29.67 in 10.0 mi West 5.8 mph - N/A   Clear
11:49 PM 48.2 °F - 24.3 °F 39% 29.67 in 10.0 mi SW 8.1 mph - N/A   Clear